Location: Lhota
(50.0887°N, 14.0116°E)
Time: 07:36:16
(UTC+00:00)

PSLV R/B - Pass Details

Date: 19 May 2025
Orbit: 586 x 683 km, 97.9° (Epoch: 22 June)

Event Time Altitude Azimuth Distance (km) Brightness Sun altitude
Rises 22:39:52 0° 15° (NNE) 2,850 8.2 -19.8°
Reaches altitude 10° 22:42:04 10° 18° (NNE) 1,935 7.1 -19.8°
Maximum altitude 22:46:15 71° 102° (ESE) 627 3.4 -19.9°
Enters shadow 22:47:06 53° 165° (SSE) 730 3.5 -19.9°
